Orbital Elements at Epoch 2459000.5 (2020-May-31.0) TDB
Reference: JPL 20 (heliocentric ecliptic J2000)
Element | Value | Uncertainty (1-sigma) | Units |
e | .061473823492343 | 4.7801e-08 | |
a | 3.176290826246937 | 3.7797e-08 | au |
q | 2.981032084633885 | 1.5345e-07 | au |
i | 8.711186134977105 | 5.7234e-06 | deg |
node | 300.139115379869 | 3.4173e-05 | deg |
peri | 339.7650591396654 | 5.8009e-05 | deg |
M | 143.4326476286053 | 4.7437e-05 | deg |
tp | 2458176.695174283445 (2018-Feb-27.19517428) | 0.00027332 | TDB |
period | 2067.658529359907 5.66 | 3.6907e-05 1.01e-07 | d yr |
n | .1741099871609103 | 3.1078e-09 | deg/d |
Q | 3.37154956785999 | 4.012e-08 | au |
|
| | Orbit Determination Parameters
Additional Information
|